Cloud cover More information Parkstad Weather Satellite


Precipitateradar More information Parkstad Rain Snow Radar


Thunderstorms More information Parkstad Lighntning


24/7 Weathercamera More information Parkstad Weathercam


Natural Fire Risk
CBI






The weather does not pose an immediate danger in Parkstad.    There are no Weather-warnings

Weather Underground History page Text

Daily Summary for October 19, 2019 Units:  Metric    English   Both
« Previous Day
Next Day »
Daily Weekly Monthly Yearly Custom
  Current: High: Low: Average:
Temperature: 12.1 °C 12.2 °C 11.4 °C 11.8 °C
Dew Point: 8.8 °C 8.9 °C 6.7 °C 7.7 °C
Humidity: 80 % 80 % 72 % 76 %
Wind Speed: 9.7 km/h 19.5 km/h 3.2 km/h 9.1 km/h
Wind Gust: 11.3 km/h 29.0 km/h - -
Wind:SW - - SSW
Pressure: 1005.3 hPa 1007.3 hPa 1005.0 hPa -
Precipitation: 0.0 mm      
Historical Graphs
 
 
Tabular Data for October 19, 2019
Time Temperature Dew Point Pressure Wind Wind Speed Wind Gust Humidity Rainfall Rate (Hourly)
00:00 11.4 °C 6.9 °C 1007.3 hPa SW 3.2 km/h 11.3 km/h 74 % 0.0 mm
00:05 11.4 °C 6.9 °C 1007.3 hPa SW 7.9 km/h 11.3 km/h 74 % 0.0 mm
00:10 11.4 °C 6.9 °C 1007.3 hPa SW 14.3 km/h 14.5 km/h 74 % 0.0 mm
00:15 11.4 °C 6.7 °C 1007.3 hPa SSW 4.7 km/h 11.3 km/h 73 % 0.0 mm
00:20 11.4 °C 6.7 °C 1007.3 hPa SSW 7.9 km/h 16.1 km/h 73 % 0.0 mm
00:25 11.4 °C 6.9 °C 1007.3 hPa SW 6.4 km/h 11.3 km/h 74 % 0.0 mm
00:30 11.4 °C 6.9 °C 1007.3 hPa SSW 9.7 km/h 16.1 km/h 74 % 0.0 mm
00:35 11.6 °C 6.9 °C 1007.3 hPa SW 3.2 km/h 11.3 km/h 73 % 0.0 mm
00:40 11.6 °C 6.9 °C 1007.3 hPa SW 7.9 km/h 12.9 km/h 73 % 0.0 mm
00:45 11.6 °C 6.9 °C 1007.3 hPa South 4.7 km/h 12.9 km/h 73 % 0.0 mm
00:50 11.6 °C 6.9 °C 1007.3 hPa SSW 9.7 km/h 14.5 km/h 73 % 0.0 mm
00:55 11.6 °C 6.9 °C 1007.3 hPa SSW 6.4 km/h 16.1 km/h 73 % 0.0 mm
01:00 11.6 °C 6.9 °C 1007.0 hPa SW 14.3 km/h 16.1 km/h 73 % 0.0 mm
01:05 11.6 °C 6.9 °C 1007.0 hPa SW 13.0 km/h 16.1 km/h 73 % 0.0 mm
01:10 11.6 °C 6.9 °C 1007.0 hPa SW 7.9 km/h 27.4 km/h 73 % 0.0 mm
01:15 11.6 °C 6.7 °C 1007.0 hPa SW 13.0 km/h 19.3 km/h 72 % 0.0 mm
01:20 11.7 °C 6.8 °C 1007.0 hPa SSW 9.7 km/h 27.4 km/h 72 % 0.0 mm
01:25 11.7 °C 6.8 °C 1007.0 hPa SW 6.4 km/h 20.9 km/h 72 % 0.0 mm
01:30 11.6 °C 6.9 °C 1006.7 hPa SW 6.4 km/h 11.3 km/h 73 % 0.0 mm
01:35 11.6 °C 6.9 °C 1006.7 hPa SSW 7.9 km/h 17.7 km/h 73 % 0.0 mm
01:40 11.6 °C 6.9 °C 1006.7 hPa South 19.5 km/h 19.3 km/h 73 % 0.0 mm
01:45 11.6 °C 6.9 °C 1006.7 hPa SW 4.7 km/h 12.9 km/h 73 % 0.0 mm
01:50 11.6 °C 7.1 °C 1006.7 hPa South 7.9 km/h 9.7 km/h 74 % 0.0 mm
01:55 11.6 °C 7.1 °C 1006.7 hPa SSW 11.1 km/h 12.9 km/h 74 % 0.0 mm
02:00 11.4 °C 7.3 °C 1006.7 hPa SSW 6.4 km/h 12.9 km/h 76 % 0.0 mm
02:05 11.4 °C 7.3 °C 1006.7 hPa SSW 4.7 km/h 9.7 km/h 76 % 0.0 mm
02:10 11.4 °C 7.5 °C 1006.7 hPa SSW 6.4 km/h 14.5 km/h 77 % 0.0 mm
02:15 11.6 °C 7.7 °C 1006.7 hPa SSW 11.1 km/h 17.7 km/h 77 % 0.0 mm
02:20 11.6 °C 7.7 °C 1006.7 hPa SSW 4.7 km/h 11.3 km/h 77 % 0.0 mm
02:25 11.6 °C 7.7 °C 1006.7 hPa SW 6.4 km/h 19.3 km/h 77 % 0.0 mm
02:30 11.7 °C 7.8 °C 1006.7 hPa South 13.0 km/h 14.5 km/h 77 % 0.0 mm
02:35 11.7 °C 7.8 °C 1006.7 hPa SSW 11.1 km/h 19.3 km/h 77 % 0.0 mm
02:40 11.7 °C 7.8 °C 1006.7 hPa South 4.7 km/h 11.3 km/h 77 % 0.0 mm
02:45 11.8 °C 7.9 °C 1006.3 hPa SSW 7.9 km/h 12.9 km/h 77 % 0.0 mm
02:50 11.8 °C 7.9 °C 1006.3 hPa SSW 9.7 km/h 16.1 km/h 77 % 0.0 mm
02:55 11.8 °C 7.9 °C 1006.3 hPa South 9.7 km/h 19.3 km/h 77 % 0.0 mm
03:00 11.8 °C 7.9 °C 1006.3 hPa South 7.9 km/h 8.0 km/h 77 % 0.0 mm
03:05 11.8 °C 7.9 °C 1006.3 hPa SSW 14.3 km/h 19.3 km/h 77 % 0.0 mm
03:10 11.8 °C 7.7 °C 1006.3 hPa SW 9.7 km/h 22.5 km/h 76 % 0.0 mm
03:15 11.8 °C 7.7 °C 1006.3 hPa South 6.4 km/h 9.7 km/h 76 % 0.0 mm
03:20 11.9 °C 7.8 °C 1006.3 hPa SSW 3.2 km/h 22.5 km/h 76 % 0.0 mm
03:25 11.8 °C 7.9 °C 1006.3 hPa SSW 6.4 km/h 12.9 km/h 77 % 0.0 mm
03:30 11.9 °C 7.8 °C 1006.3 hPa SSW 16.3 km/h 20.9 km/h 76 % 0.0 mm
03:35 11.9 °C 8.0 °C 1006.3 hPa SSW 16.3 km/h 19.3 km/h 77 % 0.0 mm
03:40 12.0 °C 8.1 °C 1006.3 hPa South 13.0 km/h 16.1 km/h 77 % 0.0 mm
03:45 11.9 °C 8.0 °C 1006.0 hPa West 16.3 km/h 25.7 km/h 77 % 0.0 mm
03:50 12.0 °C 8.1 °C 1006.0 hPa SSW 7.9 km/h 14.5 km/h 77 % 0.0 mm
03:55 12.0 °C 8.1 °C 1006.0 hPa SW 17.7 km/h 29.0 km/h 77 % 0.0 mm
04:00 12.0 °C 8.1 °C 1006.0 hPa SSW 7.9 km/h 19.3 km/h 77 % 0.0 mm
04:05 12.0 °C 8.1 °C 1006.0 hPa SSE 11.1 km/h 29.0 km/h 77 % 0.0 mm
04:10 12.0 °C 8.3 °C 1006.0 hPa SSW 11.1 km/h 22.5 km/h 78 % 0.0 mm
04:15 12.0 °C 8.1 °C 1005.6 hPa SSW 6.4 km/h 29.0 km/h 77 % 0.0 mm
04:20 12.1 °C 8.2 °C 1005.6 hPa SW 14.3 km/h 29.0 km/h 77 % 0.0 mm
04:25 12.0 °C 8.3 °C 1005.6 hPa South 9.7 km/h 19.3 km/h 78 % 0.0 mm
04:30 12.0 °C 8.3 °C 1005.6 hPa SSW 14.3 km/h 20.9 km/h 78 % 0.0 mm
04:35 12.1 °C 8.4 °C 1005.6 hPa SSW 4.7 km/h 24.1 km/h 78 % 0.0 mm
04:40 12.1 °C 8.4 °C 1005.6 hPa SW 13.0 km/h 20.9 km/h 78 % 0.0 mm
04:45 12.1 °C 8.4 °C 1005.6 hPa SW 7.9 km/h 17.7 km/h 78 % 0.0 mm
04:50 12.0 °C 8.3 °C 1005.6 hPa SSW 9.7 km/h 14.5 km/h 78 % 0.0 mm
04:55 12.0 °C 8.3 °C 1005.6 hPa SSW 7.9 km/h 24.1 km/h 78 % 0.0 mm
05:00 12.0 °C 8.3 °C 1005.6 hPa SSW 16.3 km/h 22.5 km/h 78 % 0.0 mm
05:05 12.1 °C 8.4 °C 1005.6 hPa South 9.7 km/h 20.9 km/h 78 % 0.0 mm
05:10 12.1 °C 8.4 °C 1005.6 hPa SSE 3.2 km/h 22.5 km/h 78 % 0.0 mm
05:15 12.1 °C 8.4 °C 1005.6 hPa South 7.9 km/h 19.3 km/h 78 % 0.0 mm
05:20 12.1 °C 8.4 °C 1005.6 hPa SSW 4.7 km/h 14.5 km/h 78 % 0.0 mm
05:25 12.0 °C 8.5 °C 1005.6 hPa SW 9.7 km/h 17.7 km/h 79 % 0.0 mm
05:30 12.0 °C 8.5 °C 1005.3 hPa SW 3.2 km/h 11.3 km/h 79 % 0.0 mm
05:35 12.1 °C 8.6 °C 1005.3 hPa SSW 11.1 km/h 19.3 km/h 79 % 0.0 mm
05:40 12.1 °C 8.6 °C 1005.3 hPa SSW 16.3 km/h 27.4 km/h 79 % 0.0 mm
05:45 12.1 °C 8.6 °C 1005.3 hPa South 6.4 km/h 16.1 km/h 79 % 0.0 mm
05:50 12.1 °C 8.6 °C 1005.3 hPa SW 4.7 km/h 11.3 km/h 79 % 0.0 mm
05:55 12.1 °C 8.6 °C 1005.3 hPa SSW 3.2 km/h 14.5 km/h 79 % 0.0 mm
06:00 12.1 °C 8.6 °C 1005.0 hPa SSW 11.1 km/h 14.5 km/h 79 % 0.0 mm
06:05 12.2 °C 8.7 °C 1005.0 hPa SSW 7.9 km/h 14.5 km/h 79 % 0.0 mm
06:10 12.2 °C 8.9 °C 1005.0 hPa South 6.4 km/h 14.5 km/h 80 % 0.0 mm
06:15 12.1 °C 8.8 °C 1005.3 hPa SW 9.7 km/h 11.3 km/h 80 % 0.0 mm
MeteoParkstad
Compliments of Weather Underground - 2 mb

Script developed by  Jim McMurry - jmcmurry@mwt.net Adapted for the template by  Wim van der Kuil - Leuven-Template.eu

You find our weather info also at:

Het Weer Aktueel

WOW Nederland KNMI

Vereniging voor Weerkunde en Klimatologie

UK Met Office Weather Observation Website (WOW)

WeatherCloud

Weather Underground

Awekas

Weatherlink IP

HAMweather, WeatherForYou, PWS Weather

Citizen Weather Observer Program (CWOP)

Equipment we use:

Hardware supplier
Weerhuisje

Weather-station
Vantage Pro2+ UV

WeatherServer's
alix3d2 & wl330n

WeatherProgram's
Smartbedded

Satellite NOAA's
WRX137 & KX137

Satellite Eumetsat
Ayecka SR1 & Triax

Lightning detector
Boltek StormTracker

Provider
F-Service

Weerhuisje

Vantage Pro2+ UV

alix3d2 & wl330n

Smartbedded

WRX137 & KX137

Ayecka SR1 & Triax

Boltek StormTracker

F-Service